TimeCST,TemperatureF,Dew PointF,Humidity,Sea Level PressureIn,VisibilityMPH,Wind Direction,Wind SpeedMPH,Gust SpeedMPH,PrecipitationIn,Events,Conditions,WindDirDegrees,DateUTC
12:53 AM,66.0,62.1,87,30.17,10.0,ENE,3.5,-,N/A,,Clear,70,2012-11-21 06:53:00
1:53 AM,64.9,62.1,90,30.16,10.0,Calm,Calm,-,N/A,,Clear,0,2012-11-21 07:53:00
2:53 AM,62.1,60.1,93,30.16,10.0,Calm,Calm,-,N/A,,Clear,0,2012-11-21 08:53:00
3:53 AM,62.1,60.1,93,30.16,10.0,Calm,Calm,-,N/A,,Clear,0,2012-11-21 09:53:00
4:53 AM,62.1,60.1,93,30.16,10.0,NNW,3.5,-,N/A,,Clear,330,2012-11-21 10:53:00
5:53 AM,61.0,60.1,97,30.17,7.0,NNW,3.5,-,N/A,,Clear,330,2012-11-21 11:53:00
6:53 AM,59.0,59.0,100,30.19,5.0,NNW,3.5,-,N/A,,Clear,330,2012-11-21 12:53:00
7:53 AM,64.0,63.0,96,30.21,5.0,Calm,Calm,-,N/A,,Clear,0,2012-11-21 13:53:00
8:53 AM,71.1,66.0,84,30.22,10.0,NNE,4.6,-,N/A,,Clear,30,2012-11-21 14:53:00
9:53 AM,75.9,62.1,62,30.23,10.0,East,9.2,-,N/A,,Partly Cloudy,80,2012-11-21 15:53:00
10:53 AM,80.1,62.1,54,30.22,10.0,ENE,8.1,-,N/A,,Overcast,70,2012-11-21 16:53:00
11:53 AM,81.0,57.9,45,30.20,10.0,East,11.5,-,N/A,,Partly Cloudy,100,2012-11-21 17:53:00
12:53 PM,80.1,57.9,47,30.18,10.0,East,10.4,-,N/A,,Clear,100,2012-11-21 18:53:00
1:53 PM,82.9,57.9,42,30.15,10.0,NE,12.7,-,N/A,,Clear,50,2012-11-21 19:53:00
2:53 PM,78.1,59.0,52,30.14,10.0,East,17.3,21.9,N/A,,Partly Cloudy,80,2012-11-21 20:53:00
3:53 PM,77.0,59.0,54,30.14,10.0,East,12.7,-,N/A,,Clear,90,2012-11-21 21:53:00
4:53 PM,75.9,59.0,56,30.14,10.0,East,10.4,-,N/A,,Clear,80,2012-11-21 22:53:00
5:53 PM,73.0,60.1,64,30.16,10.0,ENE,4.6,-,N/A,,Clear,70,2012-11-21 23:53:00
6:53 PM,71.1,60.1,68,30.17,10.0,ENE,4.6,-,N/A,,Clear,60,2012-11-22 00:53:00
7:53 PM,69.1,60.1,73,30.18,10.0,East,3.5,-,N/A,,Clear,80,2012-11-22 01:53:00
8:53 PM,69.1,61.0,75,30.19,10.0,East,3.5,-,N/A,,Clear,80,2012-11-22 02:53:00
9:53 PM,68.0,60.1,76,30.19,10.0,East,4.6,-,N/A,,Clear,80,2012-11-22 03:53:00
10:53 PM,66.0,59.0,78,30.19,10.0,East,4.6,-,N/A,,Clear,80,2012-11-22 04:53:00
11:53 PM,64.0,59.0,84,30.17,10.0,Calm,Calm,-,N/A,,Clear,0,2012-11-22 05:53:00